SCP
0 0 0 0 0 0 0 0 0 0 0 0 0 0 0 0 0 0 0 0 0 0 0 0 0 0 0 0 0 0 0 0
0 0 -0 0 0 0 0 0 0 0 0 0 0 0 0 0 0 0 0 0 0 0 0 0 0 0 0 0 0 0 0 0
0 -0 -0 0 0 0 0 0 0 0 0 0 0 0 0 0 0 0 0 0 0 0 0 0 0 0 0 0 0 0 0 0
0 0 0 0 0 0 0 0 0 0 0 0 0 0 0 0 0 0 0 0 0 0 0 0 0 0 0 0 0 0 0 0
0 0 0 0 0 0 0 0 0 0 0 0 0 0 0 0 0 0 0 0 0 0 0 0 0 0 0 0 0 0 0 0
0 0 0 0 0 0 0 0 0 0 0 0 0 0 0 0 0 0 0 0 0 0 0 0 0 0 0 0 0 0 0 0
0 0 0 0 0 0 0 0 0 0 0 0 0 0 0 0 0 0 0 0 0 0 0 0 0 0 0 0 0 0 0 0
0 0 0 0 0 0 0 0 0 0 0 0 0 0 0 0 0 0 0 0 0 0 0 0 0 0 0 0 0 0 0 0
0 0 0 0 0 0 0 0 0 0 0 0 0 0 0 0 0 0 0 0 0 0 0 0 0 0 0 0 0 0 0 0
0 0 0 0 0 0 0 0 0 0 0 0 0 0 0 0 0 0 0 0 0 0 0 0 0 0 0 0 0 0 0 0
0 0 0 0 0 0 0 0 0 0 0 0 0 0 0 0 0 0 0 0 0 0 0 0 0 0 0 0 0 0 0 0
0 0 0 0 0 0 0 0 0 0 0 0 0 0 0 0 0 0 0 0 0 0 0 0 0 0 0 0 0 0 0 0
0 0 0 0 0 0 0 0 0 0 0 0 0 0 0 0 0 0 0 0 0 0 0 0 0 0 0 0 0 0 0 0
0 0 0 0 0 0 0 0 0 0 0 0 0 0 0 0 0 0 0 0 0 0 0 0 0 0 0 0 0 0 0 0
0 0 0 0 0 0 0 0 0 0 0 0 0 0 0 0 0 0 0 0 0 0 0 0 0 0 0 0 0 0 0 0
0 0 0 0 0 0 0 0 0 0 0 0 0 0 0 0 0 0 0 0 0 0 0 0 0 0 0 0 0 0 0 0
0 0 0 0 0 0 0 0 0 0 0 0 0 0 0 0 0 0 0 0 0 0 0 0 0 0 0 0 0 0 0 0
0 0 0 0 0 0 0 0 0 0 0 0 0 0 0 0 0 0 0 0 0 0 0 0 0 0 0 0 0 0 0 0
0 0 0 0 0 0 0 0 0 0 0 0 0 0 0 0 0 0 0 0 0 0 0 0 0 0 0 0 0 0 0 0
0 0 0 0 0 0 0 0 0 0 0 0 0 0 0 0 0 0 0 0 0 0 0 0 0 0 0 0 0 0 0 0
Wind_Speed_500mb
24 35 38 31 28 27 25 20 20 24 28 33 36 37 40 43 43 45 46 48 50 53 54 55 56 56 58 60 60 61 63 65
18 37 36 28 26 25 24 26 28 32 36 38 39 42 44 48 49 52 54 56 58 59 60 61 63 62 61 60 59 57 57 54
42 43 34 25 24 24 25 27 31 37 41 43 45 48 51 54 55 56 58 62 64 65 66 67 65 64 62 60 57 54 52 50
49 47 37 31 28 27 29 34 36 41 44 46 48 53 56 58 61 64 65 67 68 70 70 68 67 65 62 60 58 55 53 52
41 33 36 39 38 36 34 35 38 41 45 47 48 51 55 58 61 65 69 72 72 73 73 72 71 69 67 65 62 59 59 58
34 34 42 37 36 35 34 35 39 39 41 41 44 47 52 56 60 65 71 74 76 77 78 77 76 74 73 70 67 65 64 63
34 35 28 26 26 29 34 38 41 43 44 47 50 51 50 52 55 61 67 71 76 78 79 80 79 77 74 73 72 70 68 66
18 18 19 23 29 35 41 46 49 53 56 58 60 64 65 65 62 61 62 66 72 77 80 80 79 79 75 75 72 71 70 70
14 19 26 32 38 44 46 51 57 60 63 63 65 66 66 68 70 71 68 66 66 70 75 77 79 75 72 75 71 71 72 71
25 32 37 42 48 52 55 58 61 64 67 69 70 73 72 71 71 73 77 75 69 66 70 73 73 73 66 70 70 66 70 69
32 36 40 44 50 55 56 58 63 67 72 74 77 79 80 78 76 74 73 74 77 78 70 73 78 78 71 75 76 62 64 64
34 38 43 49 53 56 57 60 65 69 72 74 75 78 78 79 75 74 72 74 74 77 77 77 73 75 67 70 80 75 68 66
40 41 44 52 58 62 63 66 67 69 70 71 72 74 76 77 75 73 70 70 72 75 77 77 77 71 63 63 71 68 64 63
47 50 48 48 49 49 47 50 52 54 56 58 62 65 68 72 73 71 67 66 66 70 75 73 72 65 61 55 67 67 59 58
41 36 34 34 36 40 44 47 50 53 55 57 60 60 60 60 62 63 61 59 61 62 67 68 66 63 54 55 63 65 57 40
35 37 38 38 39 42 44 47 48 49 53 56 58 58 59 58 55 54 54 50 51 50 54 56 62 61 53 57 70 75 63 42
36 37 38 40 41 42 44 46 50 51 51 53 56 58 58 59 59 48 42 40 41 43 46 57 50 50 45 47 69 81 67 52
36 37 39 39 40 40 41 43 45 48 50 51 52 53 55 54 52 57 47 37 34 38 36 51 45 33 37 41 66 69 72 54
36 37 37 38 40 41 42 43 44 44 45 46 47 47 48 48 47 46 44 43 36 27 26 33 36 31 28 47 57 54 58 52
34 36 38 39 40 42 42 43 44 45 45 45 45 43 42 42 40 38 36 33 31 24 26 28 27 28 26 50 58 65 55 43
Wind_Direction_500mb
23 12 5 5 359 353 343 332 312 303 299 297 296 295 291 285 279 277 279 281 282 283 284 283 280 277 274 272 270 268 266 265
346 348 353 349 347 341 335 327 320 310 303 299 300 296 292 291 287 284 283 283 282 282 282 281 280 278 275 272 270 267 264 260
326 331 340 344 340 334 323 312 304 299 296 294 289 290 291 290 289 287 285 283 281 280 279 280 280 278 277 274 270 265 262 259
311 323 327 328 321 309 305 303 304 302 301 299 296 293 292 290 289 287 287 286 283 279 277 277 276 274 272 268 265 262 260 259
300 297 309 312 314 315 315 313 306 304 303 303 302 295 292 290 286 283 282 282 282 280 278 277 275 272 269 265 262 260 259 258
297 304 305 307 315 321 327 327 325 324 324 320 314 307 301 296 292 287 283 281 280 278 277 275 273 271 267 263 260 258 258 256
298 299 304 311 316 320 322 323 322 323 322 322 320 318 318 315 307 298 292 287 281 277 275 274 272 270 267 264 261 259 256 255
300 298 297 300 305 310 312 312 312 312 312 313 312 311 311 309 306 306 302 293 286 280 274 272 272 272 271 266 262 259 256 252
295 300 304 304 303 303 304 303 304 305 306 307 308 307 305 301 299 298 296 293 289 285 279 273 271 271 270 268 264 259 256 251
295 296 295 296 297 299 301 302 303 303 304 305 306 305 304 303 301 298 296 290 283 281 278 275 275 270 267 267 263 257 255 250
293 294 295 295 297 299 301 302 301 301 301 302 302 301 301 301 301 298 294 291 288 282 274 271 271 271 261 261 264 256 249 245
292 295 297 298 298 298 298 297 296 296 295 295 296 297 297 296 296 294 293 292 289 285 282 275 266 266 261 256 257 249 243 248
302 303 303 302 300 299 299 298 297 297 297 297 298 298 297 296 295 294 292 291 290 288 284 279 272 263 256 252 251 248 244 237
306 306 306 305 304 307 309 309 310 309 307 305 303 302 300 299 298 297 295 293 290 290 288 284 278 270 259 241 235 242 246 246
311 314 315 316 317 317 319 319 319 318 317 315 312 309 306 302 300 297 295 294 293 292 290 287 278 275 261 239 229 237 240 241
311 314 317 320 323 323 323 322 322 325 324 323 320 318 317 314 310 302 298 293 291 288 284 279 277 280 273 247 219 227 233 234
313 317 320 322 322 323 323 324 324 325 325 325 324 323 320 318 314 308 301 296 285 289 278 281 287 283 274 254 231 229 226 217
313 315 317 318 319 321 324 325 325 325 326 326 325 324 322 320 316 313 312 302 293 274 278 267 281 276 262 239 222 230 223 225
305 307 311 316 318 322 325 326 325 325 324 322 321 320 320 317 316 313 314 314 310 303 276 260 269 281 254 214 207 187 211 224
302 306 310 313 314 318 321 322 322 323 323 322 322 321 319 317 316 315 314 309 306 307 286 268 257 270 236 208 197 203 212 222
Wind_Speed_850mb
24 35 38 31 28 27 25 20 20 24 28 33 36 37 40 43 43 45 46 48 50 53 54 55 56 56 58 60 60 61 63 65
18 37 36 28 26 25 24 26 28 32 36 38 39 42 44 48 49 52 54 56 58 59 60 61 63 62 61 60 59 57 57 54
42 43 34 25 24 24 25 27 31 37 41 43 45 48 51 54 55 56 58 62 64 65 66 67 65 64 62 60 57 54 52 50
49 47 37 31 28 27 29 34 36 41 44 46 48 53 56 58 61 64 65 67 68 70 70 68 67 65 62 60 58 55 53 52
41 33 36 39 38 36 34 35 38 41 45 47 48 51 55 58 61 65 69 72 72 73 73 72 71 69 67 65 62 59 59 58
34 34 42 37 36 35 34 35 39 39 41 41 44 47 52 56 60 65 71 74 76 77 78 77 76 74 73 70 67 65 64 63
34 35 28 26 26 29 34 38 41 43 44 47 50 51 50 52 55 61 67 71 76 78 79 80 79 77 74 73 72 70 68 66
18 18 19 23 29 35 41 46 49 53 56 58 60 64 65 65 62 61 62 66 72 77 80 80 79 79 75 75 72 71 70 70
14 19 26 32 38 44 46 51 57 60 63 63 65 66 66 68 70 71 68 66 66 70 75 77 79 75 72 75 71 71 72 71
25 32 37 42 48 52 55 58 61 64 67 69 70 73 72 71 71 73 77 75 69 66 70 73 73 73 66 70 70 66 70 69
32 36 40 44 50 55 56 58 63 67 72 74 77 79 80 78 76 74 73 74 77 78 70 73 78 78 71 75 76 62 64 64
34 38 43 49 53 56 57 60 65 69 72 74 75 78 78 79 75 74 72 74 74 77 77 77 73 75 67 70 80 75 68 66
40 41 44 52 58 62 63 66 67 69 70 71 72 74 76 77 75 73 70 70 72 75 77 77 77 71 63 63 71 68 64 63
47 50 48 48 49 49 47 50 52 54 56 58 62 65 68 72 73 71 67 66 66 70 75 73 72 65 61 55 67 67 59 58
41 36 34 34 36 40 44 47 50 53 55 57 60 60 60 60 62 63 61 59 61 62 67 68 66 63 54 55 63 65 57 40
35 37 38 38 39 42 44 47 48 49 53 56 58 58 59 58 55 54 54 50 51 50 54 56 62 61 53 57 70 75 63 42
36 37 38 40 41 42 44 46 50 51 51 53 56 58 58 59 59 48 42 40 41 43 46 57 50 50 45 47 69 81 67 52
36 37 39 39 40 40 41 43 45 48 50 51 52 53 55 54 52 57 47 37 34 38 36 51 45 33 37 41 66 69 72 54
36 37 37 38 40 41 42 43 44 44 45 46 47 47 48 48 47 46 44 43 36 27 26 33 36 31 28 47 57 54 58 52
34 36 38 39 40 42 42 43 44 45 45 45 45 43 42 42 40 38 36 33 31 24 26 28 27 28 26 50 58 65 55 43
Wind_Direction_850mb
23 12 5 5 359 353 343 332 312 303 299 297 296 295 291 285 279 277 279 281 282 283 284 283 280 277 274 272 270 268 266 265
346 348 353 349 347 341 335 327 320 310 303 299 300 296 292 291 287 284 283 283 282 282 282 281 280 278 275 272 270 267 264 260
326 331 340 344 340 334 323 312 304 299 296 294 289 290 291 290 289 287 285 283 281 280 279 280 280 278 277 274 270 265 262 259
311 323 327 328 321 309 305 303 304 302 301 299 296 293 292 290 289 287 287 286 283 279 277 277 276 274 272 268 265 262 260 259
300 297 309 312 314 315 315 313 306 304 303 303 302 295 292 290 286 283 282 282 282 280 278 277 275 272 269 265 262 260 259 258
297 304 305 307 315 321 327 327 325 324 324 320 314 307 301 296 292 287 283 281 280 278 277 275 273 271 267 263 260 258 258 256
298 299 304 311 316 320 322 323 322 323 322 322 320 318 318 315 307 298 292 287 281 277 275 274 272 270 267 264 261 259 256 255
300 298 297 300 305 310 312 312 312 312 312 313 312 311 311 309 306 306 302 293 286 280 274 272 272 272 271 266 262 259 256 252
295 300 304 304 303 303 304 303 304 305 306 307 308 307 305 301 299 298 296 293 289 285 279 273 271 271 270 268 264 259 256 251
295 296 295 296 297 299 301 302 303 303 304 305 306 305 304 303 301 298 296 290 283 281 278 275 275 270 267 267 263 257 255 250
293 294 295 295 297 299 301 302 301 301 301 302 302 301 301 301 301 298 294 291 288 282 274 271 271 271 261 261 264 256 249 245
292 295 297 298 298 298 298 297 296 296 295 295 296 297 297 296 296 294 293 292 289 285 282 275 266 266 261 256 257 249 243 248
302 303 303 302 300 299 299 298 297 297 297 297 298 298 297 296 295 294 292 291 290 288 284 279 272 263 256 252 251 248 244 237
306 306 306 305 304 307 309 309 310 309 307 305 303 302 300 299 298 297 295 293 290 290 288 284 278 270 259 241 235 242 246 246
311 314 315 316 317 317 319 319 319 318 317 315 312 309 306 302 300 297 295 294 293 292 290 287 278 275 261 239 229 237 240 241
311 314 317 320 323 323 323 322 322 325 324 323 320 318 317 314 310 302 298 293 291 288 284 279 277 280 273 247 219 227 233 234
313 317 320 322 322 323 323 324 324 325 325 325 324 323 320 318 314 308 301 296 285 289 278 281 287 283 274 254 231 229 226 217
313 315 317 318 319 321 324 325 325 325 326 326 325 324 322 320 316 313 312 302 293 274 278 267 281 276 262 239 222 230 223 225
305 307 311 316 318 322 325 326 325 325 324 322 321 320 320 317 316 313 314 314 310 303 276 260 269 281 254 214 207 187 211 224
302 306 310 313 314 318 321 322 322 323 323 322 322 321 319 317 316 315 314 309 306 307 286 268 257 270 236 208 197 203 212 222